Regional Weather Roundup
Issued by NWS

Home | Current Version | Previous Version | Graphics & Text | Print | Product List | Glossary On
Versions: 1 2 3 4 5 6 7 8 9 10 11 12 13 14 15 16 17 18 19 20 21 22 23 24 25 26 27
000
ASUS45 KBOU 181007
RWRCO

WEATHER ROUNDUP FOR COLORADO
NATIONAL WEATHER SERVICE DENVER/BOULDER CO
400 AM MDT MON SEP 18 2017

NOTE: "FAIR" INDICATES FEW OR NO CLOUDS BELOW 12000 FEET WITH NO
SIGNIFICANT WEATHER AND/OR OBSTRUCTIONS TO VISIBILITY.

COZ001>005-013-030-031-181100-
...NORTHWEST COLORADO...

CITY           SKY/WX    TMP DP  RH WIND       PRES   REMARKS
CRAIG          FAIR      36  33  89 W3        30.15F
HAYDEN         FAIR      43  37  79 E8        30.18S
MEEKER         FAIR      43  37  79 CALM      30.17S
RABBIT EARS PA FAIR      37  32  81 W6        30.33S
STEAMBOAT SPGS FAIR      39  36  87 CALM      30.18S
WALDEN         FAIR      37  30  75 CALM      30.23S
$$

COZ006>008-011-181100-
...WEST CENTRAL VALLEYS...

CITY           SKY/WX    TMP DP  RH WIND       PRES   REMARKS
GRAND JUNCTION FAIR      58  45  62 E16       30.08R
MONTROSE       FAIR      49  46  90 MISG      30.16F
EAGLE          CLOUDY    45  34  65 E8        30.21S
RIFLE          FAIR      51  38  60 SW6       30.13R
DELTA          FAIR      55  41  61 MISG      30.13S
NUCLA          FAIR      50  41  71 E7        30.18S
$$

COZ017>023-064>068-181100-
...SOUTHWEST COLORADO...

CITY           SKY/WX    TMP DP  RH WIND       PRES   REMARKS
DURANGO        MOCLDY    43  40  89 CALM      30.20S
CORTEZ         FAIR      45  43  93 E3        30.14F
PAGOSA SPRINGS FAIR      40  40  98 CALM      30.27R
TELLURIDE      MOCLDY    44  39  82 SE6       30.33F
WOLF CREEK PAS FAIR      34  32  93 SW9       30.50S WCI  26
$$

COZ009-010-012-014-032>034-037-058>063-181100-
...CENTRAL COLORADO...

CITY           SKY/WX    TMP DP  RH WIND       PRES   REMARKS
ASPEN          CLOUDY    44  40  85 S3        30.24R
BUENA VISTA    FAIR      40  37  89 NE3       30.26S
COPPER MTN     CLOUDY    37  28  70 W10G18    30.41F
BERTHOUD PASS  FAIR      30  23  74 W28       30.41S WCI  16
COTTONWOOD PAS FAIR      43  34  70 SW6       30.33S
GUNNISON       FAIR      41  40  96 N3        30.29S
KREMMLING      FAIR      41  36  81 CALM      30.24S
LEADVILLE      FAIR      32  30  92 NE5       30.32S WCI  27
MONARCH PASS   FAIR      32  32 100 W25       30.52R FOG     WCI  19
SALIDA         FAIR      44  38  80 W5        30.32S
SUNLIGHT       FAIR      36  30  80 SW10G17   30.39S
WILKERSON PASS FAIR      36  30  80 SW8       30.40S
$$

COZ069>075-181100-
...SAN LUIS VALLEY/SANGRE DE CRISTO MOUNTAINS...

CITY           SKY/WX    TMP DP  RH WIND       PRES   REMARKS
ALAMOSA        FAIR      34  34 100 S3        30.27S
DEL NORTE      FAIR      37  35  91 W8        30.28S
LA VETA PASS   FOG       39  37  93 SW18G24   30.45S VSB 1/2
SAGUACHE       FAIR      41  37  87 NW9       30.28R
$$

COZ035-036-038>040-181100-
...NORTHERN COLORADO FRONT RANGE...

CITY           SKY/WX    TMP DP  RH WIND       PRES   REMARKS
DENVER INTL AP MOCLDY    52  46  80 SW9       30.08S
DMNS CITY PARK   N/A     53  47  79 N7        30.08S
AURORA         PTCLDY    51  47  86 SW6       30.09F
FRONT RANGE AP FAIR      54  48  82 SW9       30.09S
ERIE MUNI ARPT FAIR      48  44  88 CALM      30.12F
BOULDER MUN AP FAIR      52  45  76 CALM      30.07F
CENTENNIAL     FAIR      53  45  74 W7        30.10F
BROOMFIELD     FAIR      52  45  76 W3        30.09F
FORT COLLINS   FAIR      52  46  80 S5        30.06F
LONGMONT       NOT AVBL
$$

COZ041-046-047-076>085-087-088-181100-
...PIKES PEAK/PALMER DIVIDE AND SOUTHERN FOOTHILLS...

CITY           SKY/WX    TMP DP  RH WIND       PRES   REMARKS
COLO. SPRINGS  MOCLDY    51  44  77 N10       30.13S
A. F. ACADEMY  FAIR      53  36  53 N12       30.13R
SCHRIEVER AFB  MOCLDY    51  41  69 MISG      30.13S
CHEYENNE MTN   NOT AVBL
ELLICOTT       NOT AVBL
FALCON         MOCLDY    51  44  78 W8        30.16S
FORT CARSON    MOCLDY    49  46  88 NW6       30.09S
LIMON            N/A    N/A N/A N/A MISG      30.07S
MONUMENT HILL  FAIR      46  37  71 W8        30.17S
CANON CITY     CLEAR     55  45  67 W10       30.10S
WALSENBURG     NOT AVBL
TRINIDAD       CLOUDY    57  51  80 W9        30.12R
$$

COZ042>045-048>051-090-091-181100-
...NORTHEAST COLORADO...

CITY           SKY/WX    TMP DP  RH WIND       PRES   REMARKS
GREELEY ARPT   FAIR      49  47  93 NW3       30.06F
AKRON          FAIR      52  50  93 S5        30.03F
BURLINGTON     FAIR      53  52  96 SW5       30.02F
WRAY           CLOUDY    55  52  88 SE6       30.02R
YUMA           FAIR      48  45  87 CALM      30.01R FOG
STERLING       MOCLDY    52  50  93 S3        30.00S
HOLYOKE        CLOUDY    55  54  94 SE8       30.01S
FORT MORGAN    FAIR      51  49  92 W6        30.04S
$$

COZ086-089-092>099-181100-
...SOUTHEAST COLORADO...

CITY           SKY/WX    TMP DP  RH WIND       PRES   REMARKS
PUEBLO         FAIR      54  44  69 W7        30.04S
LA JUNTA       FAIR      56  51  84 NW6       30.03R
LAMAR          FAIR      56  51  84 N3        30.00R
SPRINGFIELD      N/A     55  55 100 SW8       30.03F
$$




USA.gov is the U.S. government's official web portal to all federal, state and local government web resources and services.